SCP
0 0 0 0 0 0 0 0 0 0 0 0 0 0 0 0 0 0 0 0 0 0 0 0 0 0 0 0 0 0 0 0 0 0 0 0 0 0 0 0 0 0 0 0
0 0 0 0 0 0 0 0 0 0 0 0 0 0 0 0 0 0 0 0 0 0 0 0 0 0 0 0 0 0 0 0 0 0 0 0 0 0 0 0 0 0 0 0
0 0 0 0 0 0 0 0 0 0 0 0 0 0 0 0 0 0 0 0 0 0 0 0 0 0 0 0 0 0 0 0 0 0 0 0 0 0 0 0 0 0 0 0
0 0 0 0 0 0 0 0 0 0 0 0 0 0 0 0 0 0 0 0 0 0 0 0 0 0 0 0 0 0 0 0 0 0 0 0 0 0 0 0 0 0 0 0
0 0 0 0 0 0 0 0 0 0 0 0 0 0 0 0 0 0 0 0 0 0 0 0 0 0 0 0 0 0 0 0 0 0 0 0 0 0 0 0 0 0 0 0
0 0 0 0 0 0 0 -0 0 0 0 0 0 0 0 0 0 0 0 0 0 0 0 0 0 0 0 0 0 0 0 0 0 0 0 0 0 0 0 0 0 0 0 0
0 0 0 0 0 0 0 0 0 0 0 0 0 0 0 0 0 0 0 0 0 0 0 0 0 0 0 0 0 0 0 0 0 0 0 0 0 0 0 0 0 0 0 0
0 0 0 0 0 0 0 0 0 0 0 0 0 0 0 0 0 0 0 0 0 0 0 0 0 0 0 0 0 0 0 0 0 0 0 0 0 0 0 0 0 0 0 0
0 0 0 0 0 0 0 0 0 0 0 0 0 0 0 0 0 0 0 0 0 0 0 0 0 0 0 0 0 0 0 0 0 0 0 0 0 0 0 0 0 0 0 0
0 0 0 0 0 0 0 0 0 0 0 0 0 0 0 0 0 0 0 0 0 0 0 0 0 0 0 0 0 0 0 0 0 0 0 0 0 0 0 0 0 0 0 0
0 0 0 0 0 0 0 0 0 0 0 0 0 0 0 0 0 0 0 0 0 0 0 0 0 0 0 0 0 0 0 0 0 0 0 0 0 0 0 0 0 0 0 0
0 0 0 0 0 0 0 0 0 0 0 0 0 0 0 0 0 0 0 0 0 0 0 0 0 0 0 0 0 0 0 0 0 0 0 0 0 0 0 0 0 0 0 0
0 0 0 0 0 0 0 0 0 0 0 0 0 0 0 0 0 0 0 0 0 0 0 0 0 0 0 0 0 0 0 0 0 0 0 0 0 0 0 0 0 0 0 0
0 0 0 0 0 0 0 0 0 0 0 0 0 0 0 0 0 0 0 0 0 0 0 0 0 0 0 0 0 0 0 0 0 0 0 0 0 0 0 0 0 0 0 0
0 0 0 0 0 0 0 0 0 0 0 0 0 0 0 0 0 0 0 0 0 0 0 0 0 0 0 0 0 0 0 0 0 0 0 0 0 0 0 0 0 0 0 0
0 0 0 0 0 0 0 0 0 0 0 0 0 0 0 0 0 0 0 0 0 0 0 0 0 0 0 0 0 0 0 0 0 0 0 0 0 0 0 0 0 0 0 0
0 0 0 0 0 0 0 0 0 0 0 0 0 0 0 0 0 0 0 0 0 0 0 0 0 0 0 0 0 0 0 0 0 0 0 0 0 0 0 0 0 0 0 0
0 0 0 0 0 0 0 0 0 0 0 0 0 0 0 0 0 0 0 0 0 0 0 0 0 0 0 0 0 0 0 0 0 0 0 0 0 0 0 0 0 0 0 0
0 0 0 0 0 0 0 0 0 0 0 0 0 0 0 0 0 0 0 0 0 0 0 0 0 0 0 0 0 0 0 0 0 0 0 0 0 0 0 0 0 0 0 0
0 0 0 0 0 0 0 0 0 0 0 0 0 0 0 0 0 0 0 0 0 0 0 0 0 0 0 0 0 0 0 0 0 0 0 0 0 0 0 0 0 0 0 0
0 0 0 0 0 0 0 0 0 0 0 0 0 0 0 0 0 0 0 0 0 0 0 0 0 0 0 0 0 0 0 0 0 0 0 0 0 0 0 0 0 0 0 0
0 0 0 0 0 0 0 0 0 0 0 0 0 0 0 0 0 0 0 0 0 0 0 0 0 0 0 0 0 0 0 0 0 0 0 0 0 0 0 0 0 0 0 0
0 0 0 0 0 0 0 0 0 0 0 0 0 0 0 0 0 0 0 0 0 0 0 0 0 0 0 0 0 0 0 0 0 0 0 0 0 0 0 0 0 0 0 0
0 0 0 0 0 0 0 0 0 0 0 0 0 0 0 0 0 0 0 0 0 0 0 0 0 0 0 0 0 0 0 0 0 0 0 0 0 0 0 0 0 0 0 0
0 0 0 0 0 0 0 0 0 0 0 0 0 0 0 0 -0 0 0 0 0 0 0 0 0 0 0 0 0 0 0 0 0 0 0 0 0 0 0 0 0 0 0 0
0 0 0 0 0 0 0 0 0 0 0 0 0 0 0 0 0 0 0 0 0 0 0 0 0 0 0 0 0 0 0 0 0 0 0 0 0 0 0 0 0 0 0 0
0 0 0 0 0 0 0 0 0 0 0 0 0 0 0 0 0 0 0 0 0 0 0 0 0 0 0 0 0 0 0 0 0 0 0 0 0 0 0 0 0 0 0 0
Wind_Speed_500mb
13 12 26 16 14 14 16 28 17 13 14 16 17 16 19 31 43 55 62 65 67 67 63 57 55 56 56 57 62 64 64 64 66 65 62 59 54 47 40 33 28 23 17 14
7 4 18 29 30 22 32 31 24 9 19 14 4 10 18 37 51 66 75 76 73 69 64 66 66 65 65 65 66 67 68 70 70 68 64 59 53 45 37 32 26 21 17 15
17 5 13 4 35 31 29 27 35 23 36 9 11 18 41 47 57 74 80 78 76 75 74 73 73 73 73 71 71 72 72 72 70 66 63 57 49 42 36 31 27 23 19 19
7 6 5 17 14 35 42 38 40 8 11 21 30 45 47 50 53 60 66 68 73 77 80 79 77 77 74 74 76 77 76 73 71 68 62 55 47 41 36 32 28 23 21 21
8 5 13 21 11 14 16 32 31 32 43 35 27 17 34 48 54 54 53 57 65 75 82 83 85 81 83 85 84 82 80 77 73 68 62 53 47 41 38 33 28 23 25 25
7 12 23 6 19 22 11 27 16 36 30 19 23 8 28 49 42 44 53 60 65 71 78 85 86 90 89 89 90 88 84 80 74 67 59 52 46 42 37 32 29 28 27 26
9 10 13 15 11 26 17 14 10 46 52 40 18 50 50 42 52 57 56 58 64 69 75 80 89 94 96 97 98 90 85 80 76 68 59 51 46 42 38 35 32 30 28 28
6 7 22 12 10 17 4 6 5 5 28 40 53 43 45 34 21 28 36 43 55 68 72 77 85 93 101 102 98 91 89 85 77 67 60 54 49 44 40 35 31 29 30 34
20 12 11 25 12 11 4 4 4 7 2 14 25 27 30 29 26 26 30 36 45 55 67 75 78 86 101 104 100 98 95 87 78 68 61 55 50 43 38 32 29 32 37 36
8 6 5 14 24 7 4 5 6 4 2 6 9 10 14 17 21 27 32 35 44 54 64 72 75 81 94 103 103 100 96 87 77 68 61 54 45 38 31 29 36 40 36 36
5 7 3 3 14 20 10 3 4 6 9 13 15 17 23 25 28 30 36 39 42 53 62 68 73 81 91 100 101 99 92 85 76 66 58 49 40 28 27 37 42 38 38 38
7 11 7 6 8 6 7 7 2 3 3 8 12 15 19 22 26 30 31 35 41 48 59 65 67 75 83 90 97 97 92 82 72 61 51 39 31 25 37 47 41 42 41 41
10 16 12 12 10 12 13 11 7 2 4 6 9 12 17 18 20 23 26 31 37 43 48 52 57 67 78 86 92 90 84 75 63 51 38 31 26 39 46 43 40 39 39 40
15 12 5 3 4 5 6 7 10 11 10 15 17 21 23 23 22 23 23 25 29 34 39 44 53 66 78 85 86 79 68 55 46 38 33 34 46 51 45 40 39 36 38 40
11 5 3 4 9 16 18 20 18 16 16 17 18 19 23 27 27 24 22 23 25 29 34 41 54 69 80 82 77 67 57 43 37 51 52 56 51 47 45 44 39 38 39 40
2 6 5 0 13 17 15 12 11 13 14 17 16 16 19 22 22 23 25 24 27 32 34 43 56 71 75 72 67 63 49 50 55 50 54 52 47 49 47 43 42 42 41 39
7 10 6 4 9 10 11 12 16 19 21 24 26 26 24 24 23 23 25 27 31 34 37 44 57 66 66 69 68 59 62 64 57 55 51 51 52 47 46 46 45 43 42 41
6 4 2 4 7 8 10 13 15 18 21 24 26 27 27 26 24 25 25 26 29 33 39 50 63 67 70 70 70 69 62 58 56 54 53 51 48 48 47 46 44 42 41 41
7 8 8 8 10 12 14 17 19 22 24 25 25 25 26 28 28 27 26 28 32 37 43 54 62 66 66 63 61 57 56 55 53 50 49 49 48 48 47 45 44 42 40 39
5 9 12 13 14 15 15 15 14 15 18 21 23 25 25 25 25 26 29 31 34 39 44 53 62 64 62 61 59 55 53 49 48 49 50 50 48 47 46 44 43 42 41 41
6 5 4 3 3 5 7 9 11 13 15 18 21 25 27 29 31 31 31 31 32 40 49 54 55 59 61 62 59 56 53 52 50 46 50 51 49 47 45 44 43 42 42 41
11 11 13 13 11 11 12 14 17 19 21 23 25 28 30 33 35 38 37 36 34 40 47 51 53 56 58 60 59 59 57 55 53 51 53 52 48 45 43 43 42 43 43 43
11 11 13 12 11 11 12 15 15 17 19 21 24 27 30 33 35 38 39 41 41 40 42 49 52 54 56 57 57 57 57 54 52 51 51 49 42 40 40 41 43 45 46 46
9 9 10 12 14 14 13 16 19 21 23 24 25 27 30 33 36 38 39 37 38 38 42 45 46 51 53 52 51 49 49 49 48 45 42 40 40 43 43 44 46 48 49 48
17 17 16 15 16 19 21 23 25 27 27 28 29 30 31 33 34 36 37 37 35 32 32 36 42 46 44 46 46 46 46 46 44 43 43 44 44 44 45 47 48 48 48 49
17 20 23 25 26 27 29 31 33 34 35 35 35 34 33 33 33 32 32 32 30 29 30 33 36 36 35 37 38 38 39 40 41 41 42 43 42 43 45 47 48 49 49 50
25 26 27 30 34 35 36 36 36 36 37 38 37 35 34 32 30 28 28 27 27 27 29 30 31 33 34 35 36 36 37 38 39 40 40 42 43 45 48 49 50 51 52 52
Wind_Direction_500mb
215 210 180 202 200 197 204 230 207 213 210 248 260 230 223 221 206 203 204 207 208 208 207 205 203 200 197 196 196 197 194 191 185 180 179 179 181 184 186 192 199 204 214 239
295 323 193 208 228 231 220 230 243 202 240 227 288 232 194 207 203 206 211 212 211 211 208 207 205 201 196 193 190 188 186 184 183 182 181 183 186 189 192 197 198 206 220 244
227 9 108 311 215 216 226 220 228 209 231 177 214 211 221 211 212 215 216 215 215 215 214 211 207 204 200 194 191 190 189 188 187 185 186 188 190 194 198 200 203 211 229 251
157 71 193 243 206 223 219 229 225 245 225 195 216 235 242 232 227 226 223 223 224 222 219 216 212 207 204 199 197 195 192 192 191 190 191 192 195 198 202 205 209 219 237 255
135 194 288 269 215 162 170 250 220 212 235 227 226 245 254 243 241 240 238 238 234 230 224 219 215 210 206 203 201 198 196 197 196 195 195 197 200 203 205 208 216 230 243 255
139 194 230 114 211 184 115 263 201 204 227 198 160 211 249 241 245 247 247 244 242 236 229 225 220 215 210 207 205 203 201 200 200 199 200 202 202 204 209 215 226 236 246 254
176 232 285 244 233 169 170 253 260 200 215 186 186 218 244 248 244 251 254 251 245 239 236 231 223 218 213 212 210 207 204 202 202 202 202 203 207 208 211 220 232 243 250 259
155 201 252 203 95 175 241 79 335 67 222 222 234 235 240 248 250 256 258 260 253 242 238 233 229 220 216 215 213 208 205 204 204 204 206 207 209 212 217 226 239 250 258 260
191 193 221 196 183 222 6 148 165 127 128 250 254 260 266 269 272 273 269 265 257 248 242 238 233 224 220 217 213 206 204 205 205 206 208 209 211 215 222 234 248 258 254 257
109 266 211 207 218 266 231 154 158 198 224 296 295 298 296 297 291 289 284 268 252 245 241 239 233 225 222 219 210 207 205 204 205 207 210 210 213 220 232 259 268 255 258 263
303 290 90 173 224 227 223 211 234 243 266 278 283 287 288 290 287 278 274 271 253 243 240 237 228 221 220 215 209 205 204 204 205 207 209 211 213 232 259 264 256 262 265 272
221 177 118 131 86 119 212 246 303 28 350 330 318 303 292 290 287 283 280 275 260 248 242 237 228 222 218 211 209 207 204 204 205 207 206 209 230 254 257 252 257 262 271 278
147 134 104 124 124 128 136 145 144 159 8 9 7 358 351 342 328 306 291 279 266 258 251 242 232 223 214 207 205 205 206 204 204 201 213 234 254 252 247 250 259 269 276 283
107 136 118 154 320 331 351 345 344 336 315 312 323 313 318 320 318 315 298 283 267 256 247 239 228 217 206 202 202 202 201 200 202 220 246 247 245 241 246 254 257 266 275 282
158 193 206 241 271 278 297 312 319 328 325 318 318 324 324 324 319 309 294 283 268 253 241 231 219 206 201 199 199 198 197 207 230 245 237 235 239 245 251 254 260 267 276 287
161 213 240 222 88 80 73 61 38 14 2 357 347 336 332 329 321 311 297 276 257 253 235 223 210 204 202 200 198 201 209 227 246 233 232 238 245 250 253 258 265 273 279 282
64 104 110 95 83 69 57 35 13 359 348 341 344 349 348 343 333 320 301 281 262 240 231 219 209 206 206 206 206 210 229 240 236 234 239 244 246 251 257 262 268 272 277 285
124 119 42 343 344 353 351 351 347 343 339 340 336 333 336 337 335 326 308 282 260 245 225 215 210 209 208 209 212 225 232 229 232 236 241 246 251 255 259 264 269 274 280 286
283 288 295 305 322 327 325 322 320 317 316 314 318 324 330 326 321 318 309 293 270 249 231 219 216 215 218 221 223 225 227 231 235 241 247 251 256 259 261 265 270 275 279 283
279 284 294 304 309 310 312 314 315 309 303 300 299 298 300 302 305 304 303 294 274 258 244 234 228 226 226 230 232 233 235 239 245 248 251 254 258 262 265 268 271 275 280 283
49 72 75 80 90 61 32 20 11 1 354 343 332 324 317 310 305 297 288 282 275 264 255 247 240 237 237 239 241 243 244 245 248 254 260 259 259 262 265 269 273 276 279 282
81 88 89 88 83 66 46 30 16 6 357 350 344 337 332 324 316 307 296 287 279 266 255 250 248 246 244 244 244 244 245 245 256 257 257 257 259 260 263 267 272 275 278 282
67 67 63 58 52 38 26 16 4 354 346 343 338 335 332 328 323 315 307 297 288 275 264 256 250 246 244 244 245 245 246 250 250 251 253 254 256 260 264 269 273 276 278 279
36 39 29 20 11 359 345 347 345 341 339 337 334 332 329 326 322 318 312 302 293 284 273 263 256 251 250 249 249 250 251 252 252 253 254 256 257 261 267 270 272 274 275 277
358 358 0 356 349 346 346 342 338 334 331 328 326 324 321 318 314 312 308 305 299 287 276 267 260 257 255 254 254 254 254 254 255 255 256 258 260 262 266 269 272 274 278 281
344 338 336 334 333 334 333 330 326 323 322 321 321 320 318 316 313 309 304 299 293 284 274 266 261 261 255 255 254 253 253 254 254 255 257 259 263 267 270 272 275 278 280 283
339 337 331 328 325 321 318 317 318 317 317 317 316 316 314 312 309 304 298 292 286 277 271 266 262 261 259 256 255 254 255 255 257 260 263 266 269 272 274 276 278 280 282 285
Wind_Speed_850mb
13 12 26 16 14 14 16 28 17 13 14 16 17 16 19 31 43 55 62 65 67 67 63 57 55 56 56 57 62 64 64 64 66 65 62 59 54 47 40 33 28 23 17 14
7 4 18 29 30 22 32 31 24 9 19 14 4 10 18 37 51 66 75 76 73 69 64 66 66 65 65 65 66 67 68 70 70 68 64 59 53 45 37 32 26 21 17 15
17 5 13 4 35 31 29 27 35 23 36 9 11 18 41 47 57 74 80 78 76 75 74 73 73 73 73 71 71 72 72 72 70 66 63 57 49 42 36 31 27 23 19 19
7 6 5 17 14 35 42 38 40 8 11 21 30 45 47 50 53 60 66 68 73 77 80 79 77 77 74 74 76 77 76 73 71 68 62 55 47 41 36 32 28 23 21 21
8 5 13 21 11 14 16 32 31 32 43 35 27 17 34 48 54 54 53 57 65 75 82 83 85 81 83 85 84 82 80 77 73 68 62 53 47 41 38 33 28 23 25 25
7 12 23 6 19 22 11 27 16 36 30 19 23 8 28 49 42 44 53 60 65 71 78 85 86 90 89 89 90 88 84 80 74 67 59 52 46 42 37 32 29 28 27 26
9 10 13 15 11 26 17 14 10 46 52 40 18 50 50 42 52 57 56 58 64 69 75 80 89 94 96 97 98 90 85 80 76 68 59 51 46 42 38 35 32 30 28 28
6 7 22 12 10 17 4 6 5 5 28 40 53 43 45 34 21 28 36 43 55 68 72 77 85 93 101 102 98 91 89 85 77 67 60 54 49 44 40 35 31 29 30 34
20 12 11 25 12 11 4 4 4 7 2 14 25 27 30 29 26 26 30 36 45 55 67 75 78 86 101 104 100 98 95 87 78 68 61 55 50 43 38 32 29 32 37 36
8 6 5 14 24 7 4 5 6 4 2 6 9 10 14 17 21 27 32 35 44 54 64 72 75 81 94 103 103 100 96 87 77 68 61 54 45 38 31 29 36 40 36 36
5 7 3 3 14 20 10 3 4 6 9 13 15 17 23 25 28 30 36 39 42 53 62 68 73 81 91 100 101 99 92 85 76 66 58 49 40 28 27 37 42 38 38 38
7 11 7 6 8 6 7 7 2 3 3 8 12 15 19 22 26 30 31 35 41 48 59 65 67 75 83 90 97 97 92 82 72 61 51 39 31 25 37 47 41 42 41 41
10 16 12 12 10 12 13 11 7 2 4 6 9 12 17 18 20 23 26 31 37 43 48 52 57 67 78 86 92 90 84 75 63 51 38 31 26 39 46 43 40 39 39 40
15 12 5 3 4 5 6 7 10 11 10 15 17 21 23 23 22 23 23 25 29 34 39 44 53 66 78 85 86 79 68 55 46 38 33 34 46 51 45 40 39 36 38 40
11 5 3 4 9 16 18 20 18 16 16 17 18 19 23 27 27 24 22 23 25 29 34 41 54 69 80 82 77 67 57 43 37 51 52 56 51 47 45 44 39 38 39 40
2 6 5 0 13 17 15 12 11 13 14 17 16 16 19 22 22 23 25 24 27 32 34 43 56 71 75 72 67 63 49 50 55 50 54 52 47 49 47 43 42 42 41 39
7 10 6 4 9 10 11 12 16 19 21 24 26 26 24 24 23 23 25 27 31 34 37 44 57 66 66 69 68 59 62 64 57 55 51 51 52 47 46 46 45 43 42 41
6 4 2 4 7 8 10 13 15 18 21 24 26 27 27 26 24 25 25 26 29 33 39 50 63 67 70 70 70 69 62 58 56 54 53 51 48 48 47 46 44 42 41 41
7 8 8 8 10 12 14 17 19 22 24 25 25 25 26 28 28 27 26 28 32 37 43 54 62 66 66 63 61 57 56 55 53 50 49 49 48 48 47 45 44 42 40 39
5 9 12 13 14 15 15 15 14 15 18 21 23 25 25 25 25 26 29 31 34 39 44 53 62 64 62 61 59 55 53 49 48 49 50 50 48 47 46 44 43 42 41 41
6 5 4 3 3 5 7 9 11 13 15 18 21 25 27 29 31 31 31 31 32 40 49 54 55 59 61 62 59 56 53 52 50 46 50 51 49 47 45 44 43 42 42 41
11 11 13 13 11 11 12 14 17 19 21 23 25 28 30 33 35 38 37 36 34 40 47 51 53 56 58 60 59 59 57 55 53 51 53 52 48 45 43 43 42 43 43 43
11 11 13 12 11 11 12 15 15 17 19 21 24 27 30 33 35 38 39 41 41 40 42 49 52 54 56 57 57 57 57 54 52 51 51 49 42 40 40 41 43 45 46 46
9 9 10 12 14 14 13 16 19 21 23 24 25 27 30 33 36 38 39 37 38 38 42 45 46 51 53 52 51 49 49 49 48 45 42 40 40 43 43 44 46 48 49 48
17 17 16 15 16 19 21 23 25 27 27 28 29 30 31 33 34 36 37 37 35 32 32 36 42 46 44 46 46 46 46 46 44 43 43 44 44 44 45 47 48 48 48 49
17 20 23 25 26 27 29 31 33 34 35 35 35 34 33 33 33 32 32 32 30 29 30 33 36 36 35 37 38 38 39 40 41 41 42 43 42 43 45 47 48 49 49 50
25 26 27 30 34 35 36 36 36 36 37 38 37 35 34 32 30 28 28 27 27 27 29 30 31 33 34 35 36 36 37 38 39 40 40 42 43 45 48 49 50 51 52 52
Wind_Direction_850mb
215 210 180 202 200 197 204 230 207 213 210 248 260 230 223 221 206 203 204 207 208 208 207 205 203 200 197 196 196 197 194 191 185 180 179 179 181 184 186 192 199 204 214 239
295 323 193 208 228 231 220 230 243 202 240 227 288 232 194 207 203 206 211 212 211 211 208 207 205 201 196 193 190 188 186 184 183 182 181 183 186 189 192 197 198 206 220 244
227 9 108 311 215 216 226 220 228 209 231 177 214 211 221 211 212 215 216 215 215 215 214 211 207 204 200 194 191 190 189 188 187 185 186 188 190 194 198 200 203 211 229 251
157 71 193 243 206 223 219 229 225 245 225 195 216 235 242 232 227 226 223 223 224 222 219 216 212 207 204 199 197 195 192 192 191 190 191 192 195 198 202 205 209 219 237 255
135 194 288 269 215 162 170 250 220 212 235 227 226 245 254 243 241 240 238 238 234 230 224 219 215 210 206 203 201 198 196 197 196 195 195 197 200 203 205 208 216 230 243 255
139 194 230 114 211 184 115 263 201 204 227 198 160 211 249 241 245 247 247 244 242 236 229 225 220 215 210 207 205 203 201 200 200 199 200 202 202 204 209 215 226 236 246 254
176 232 285 244 233 169 170 253 260 200 215 186 186 218 244 248 244 251 254 251 245 239 236 231 223 218 213 212 210 207 204 202 202 202 202 203 207 208 211 220 232 243 250 259
155 201 252 203 95 175 241 79 335 67 222 222 234 235 240 248 250 256 258 260 253 242 238 233 229 220 216 215 213 208 205 204 204 204 206 207 209 212 217 226 239 250 258 260
191 193 221 196 183 222 6 148 165 127 128 250 254 260 266 269 272 273 269 265 257 248 242 238 233 224 220 217 213 206 204 205 205 206 208 209 211 215 222 234 248 258 254 257
109 266 211 207 218 266 231 154 158 198 224 296 295 298 296 297 291 289 284 268 252 245 241 239 233 225 222 219 210 207 205 204 205 207 210 210 213 220 232 259 268 255 258 263
303 290 90 173 224 227 223 211 234 243 266 278 283 287 288 290 287 278 274 271 253 243 240 237 228 221 220 215 209 205 204 204 205 207 209 211 213 232 259 264 256 262 265 272
221 177 118 131 86 119 212 246 303 28 350 330 318 303 292 290 287 283 280 275 260 248 242 237 228 222 218 211 209 207 204 204 205 207 206 209 230 254 257 252 257 262 271 278
147 134 104 124 124 128 136 145 144 159 8 9 7 358 351 342 328 306 291 279 266 258 251 242 232 223 214 207 205 205 206 204 204 201 213 234 254 252 247 250 259 269 276 283
107 136 118 154 320 331 351 345 344 336 315 312 323 313 318 320 318 315 298 283 267 256 247 239 228 217 206 202 202 202 201 200 202 220 246 247 245 241 246 254 257 266 275 282
158 193 206 241 271 278 297 312 319 328 325 318 318 324 324 324 319 309 294 283 268 253 241 231 219 206 201 199 199 198 197 207 230 245 237 235 239 245 251 254 260 267 276 287
161 213 240 222 88 80 73 61 38 14 2 357 347 336 332 329 321 311 297 276 257 253 235 223 210 204 202 200 198 201 209 227 246 233 232 238 245 250 253 258 265 273 279 282
64 104 110 95 83 69 57 35 13 359 348 341 344 349 348 343 333 320 301 281 262 240 231 219 209 206 206 206 206 210 229 240 236 234 239 244 246 251 257 262 268 272 277 285
124 119 42 343 344 353 351 351 347 343 339 340 336 333 336 337 335 326 308 282 260 245 225 215 210 209 208 209 212 225 232 229 232 236 241 246 251 255 259 264 269 274 280 286
283 288 295 305 322 327 325 322 320 317 316 314 318 324 330 326 321 318 309 293 270 249 231 219 216 215 218 221 223 225 227 231 235 241 247 251 256 259 261 265 270 275 279 283
279 284 294 304 309 310 312 314 315 309 303 300 299 298 300 302 305 304 303 294 274 258 244 234 228 226 226 230 232 233 235 239 245 248 251 254 258 262 265 268 271 275 280 283
49 72 75 80 90 61 32 20 11 1 354 343 332 324 317 310 305 297 288 282 275 264 255 247 240 237 237 239 241 243 244 245 248 254 260 259 259 262 265 269 273 276 279 282
81 88 89 88 83 66 46 30 16 6 357 350 344 337 332 324 316 307 296 287 279 266 255 250 248 246 244 244 244 244 245 245 256 257 257 257 259 260 263 267 272 275 278 282
67 67 63 58 52 38 26 16 4 354 346 343 338 335 332 328 323 315 307 297 288 275 264 256 250 246 244 244 245 245 246 250 250 251 253 254 256 260 264 269 273 276 278 279
36 39 29 20 11 359 345 347 345 341 339 337 334 332 329 326 322 318 312 302 293 284 273 263 256 251 250 249 249 250 251 252 252 253 254 256 257 261 267 270 272 274 275 277
358 358 0 356 349 346 346 342 338 334 331 328 326 324 321 318 314 312 308 305 299 287 276 267 260 257 255 254 254 254 254 254 255 255 256 258 260 262 266 269 272 274 278 281
344 338 336 334 333 334 333 330 326 323 322 321 321 320 318 316 313 309 304 299 293 284 274 266 261 261 255 255 254 253 253 254 254 255 257 259 263 267 270 272 275 278 280 283
339 337 331 328 325 321 318 317 318 317 317 317 316 316 314 312 309 304 298 292 286 277 271 266 262 261 259 256 255 254 255 255 257 260 263 266 269 272 274 276 278 280 282 285